Time,TemperatureF,DewpointF,PressureIn,WindDirection,WindDirectionDegrees,WindSpeedMPH,WindSpeedGustMPH,Humidity,HourlyPrecipIn,Conditions,Clouds,dailyrainin,SoftwareType,DateUTC
2013-01-03 00:00:00,41.8,39.4,30.04,SSW,202,2.0,3.0,91,0.00,,,0.00,WeatherCatV1.11B39,2013-01-03 05:00:00,
2013-01-03 00:02:00,41.7,39.3,30.05,SSW,202,1.0,3.0,91,0.00,,,0.00,WeatherCatV1.11B39,2013-01-03 05:02:00,
2013-01-03 00:07:00,41.7,39.3,30.04,SSW,202,0.0,1.0,91,0.00,,,0.00,WeatherCatV1.11B39,2013-01-03 05:07:00,
2013-01-03 00:12:00,41.6,39.2,30.04,SSW,202,1.0,1.0,91,0.00,,,0.00,WeatherCatV1.11B39,2013-01-03 05:12:00,
2013-01-03 00:17:00,41.6,39.2,30.04,SSW,202,0.0,2.0,91,0.00,,,0.00,WeatherCatV1.11B39,2013-01-03 05:17:00,
2013-01-03 00:22:00,41.6,39.2,30.03,SSW,202,0.0,0.0,91,0.00,,,0.00,WeatherCatV1.11B39,2013-01-03 05:22:00,
2013-01-03 00:27:00,41.6,39.2,30.04,SSW,202,0.0,0.0,91,0.00,,,0.00,WeatherCatV1.11B39,2013-01-03 05:27:00,
2013-01-03 00:32:00,41.6,39.5,30.04,SSW,202,1.0,2.0,92,0.00,,,0.00,WeatherCatV1.11B39,2013-01-03 05:32:00,
2013-01-03 00:37:00,41.6,39.5,30.04,SSW,202,2.0,2.0,92,0.00,,,0.00,WeatherCatV1.11B39,2013-01-03 05:37:00,
2013-01-03 00:42:00,41.5,39.4,30.04,SW,227,1.0,2.0,92,0.00,,,0.00,WeatherCatV1.11B39,2013-01-03 05:42:00,
2013-01-03 00:47:00,41.5,39.4,30.05,SW,227,3.0,3.0,92,0.00,,,0.00,WeatherCatV1.11B39,2013-01-03 05:47:00,
2013-01-03 00:52:00,41.5,39.1,30.05,SW,227,1.0,2.0,91,0.00,,,0.00,WeatherCatV1.11B39,2013-01-03 05:52:00,
2013-01-03 00:57:00,41.5,39.1,30.05,SW,227,3.0,3.0,91,0.00,,,0.00,WeatherCatV1.11B39,2013-01-03 05:57:00,
2013-01-03 01:02:00,41.5,39.1,30.05,SW,227,0.0,1.0,91,0.00,,,0.00,WeatherCatV1.11B39,2013-01-03 06:02:00,
2013-01-03 01:07:00,41.5,39.1,30.04,SW,227,0.0,0.0,91,0.00,,,0.00,WeatherCatV1.11B39,2013-01-03 06:07:00,
2013-01-03 01:12:00,41.5,39.1,30.05,SW,227,1.0,1.0,91,0.00,,,0.00,WeatherCatV1.11B39,2013-01-03 06:12:00,
2013-01-03 01:17:00,41.5,39.4,30.05,SW,227,1.0,2.0,92,0.00,,,0.00,WeatherCatV1.11B39,2013-01-03 06:17:00,
2013-01-03 01:22:00,41.5,39.4,30.05,SW,227,0.0,0.0,92,0.00,,,0.00,WeatherCatV1.11B39,2013-01-03 06:22:00,
2013-01-03 01:27:00,41.4,39.3,30.05,SW,227,0.0,1.0,92,0.00,,,0.00,WeatherCatV1.11B39,2013-01-03 06:27:00,
2013-01-03 01:32:00,41.4,39.3,30.04,SW,227,0.0,0.0,92,0.00,,,0.00,WeatherCatV1.11B39,2013-01-03 06:32:00,
2013-01-03 01:37:00,41.4,39.3,30.04,SW,227,1.0,2.0,92,0.00,,,0.00,WeatherCatV1.11B39,2013-01-03 06:37:00,
2013-01-03 01:42:00,41.3,39.2,30.04,SW,227,0.0,1.0,92,0.00,,,0.00,WeatherCatV1.11B39,2013-01-03 06:42:00,
2013-01-03 01:47:00,41.3,39.2,30.04,SW,227,0.0,0.0,92,0.00,,,0.00,WeatherCatV1.11B39,2013-01-03 06:47:00,
2013-01-03 01:52:00,41.3,39.2,30.04,SW,227,0.0,0.0,92,0.00,,,0.00,WeatherCatV1.11B39,2013-01-03 06:52:00,
2013-01-03 01:57:00,41.2,39.1,30.04,SW,227,0.0,0.0,92,0.00,,,0.00,WeatherCatV1.11B39,2013-01-03 06:57:00,
2013-01-03 02:02:00,41.2,39.3,30.05,SW,227,0.0,0.0,93,0.00,,,0.00,WeatherCatV1.11B39,2013-01-03 07:02:00,
2013-01-03 02:07:00,41.2,39.3,30.05,SW,227,0.0,0.0,93,0.00,,,0.00,WeatherCatV1.11B39,2013-01-03 07:07:00,
2013-01-03 02:12:00,41.2,39.3,30.05,SW,227,0.0,0.0,93,0.00,,,0.00,WeatherCatV1.11B39,2013-01-03 07:12:00,
2013-01-03 02:17:00,41.1,39.2,30.05,SW,227,0.0,2.0,93,0.00,,,0.00,WeatherCatV1.11B39,2013-01-03 07:17:00,
2013-01-03 02:22:00,41.1,39.2,30.05,SW,227,0.0,2.0,93,0.00,,,0.00,WeatherCatV1.11B39,2013-01-03 07:22:00,
2013-01-03 02:27:00,41.0,39.1,30.04,SW,227,0.0,0.0,93,0.00,,,0.00,WeatherCatV1.11B39,2013-01-03 07:27:00,
2013-01-03 02:32:00,41.0,39.1,30.04,NE,52,1.0,2.0,93,0.00,,,0.00,WeatherCatV1.11B39,2013-01-03 07:32:00,
2013-01-03 02:37:00,40.9,39.0,30.04,NE,52,2.0,2.0,93,0.00,,,0.00,WeatherCatV1.11B39,2013-01-03 07:37:00,
2013-01-03 02:42:00,40.9,39.0,30.05,NE,52,0.0,1.0,93,0.00,,,0.00,WeatherCatV1.11B39,2013-01-03 07:42:00,
2013-01-03 02:47:00,40.9,39.0,30.04,NE,52,0.0,0.0,93,0.00,,,0.00,WeatherCatV1.11B39,2013-01-03 07:47:00,
2013-01-03 02:52:00,40.8,38.9,30.04,NE,52,0.0,0.0,93,0.00,,,0.00,WeatherCatV1.11B39,2013-01-03 07:52:00,
2013-01-03 02:57:00,40.8,38.9,30.04,NE,52,0.0,0.0,93,0.00,,,0.00,WeatherCatV1.11B39,2013-01-03 07:57:00,
2013-01-03 03:02:00,40.7,38.8,30.04,NE,52,0.0,0.0,93,0.00,,,0.00,WeatherCatV1.11B39,2013-01-03 08:02:00,
2013-01-03 03:07:00,40.7,38.8,30.04,NE,52,0.0,0.0,93,0.00,,,0.00,WeatherCatV1.11B39,2013-01-03 08:07:00,
2013-01-03 03:12:00,40.6,38.7,30.04,NE,52,0.0,0.0,93,0.00,,,0.00,WeatherCatV1.11B39,2013-01-03 08:12:00,
2013-01-03 03:17:00,40.6,39.0,30.05,NE,52,0.0,2.0,94,0.00,,,0.00,WeatherCatV1.11B39,2013-01-03 08:17:00,
2013-01-03 03:22:00,40.6,39.0,30.05,NE,52,0.0,0.0,94,0.00,,,0.00,WeatherCatV1.11B39,2013-01-03 08:22:00,
2013-01-03 03:27:00,40.6,39.0,30.05,NE,52,1.0,2.0,94,0.00,,,0.00,WeatherCatV1.11B39,2013-01-03 08:27:00,
2013-01-03 03:32:00,40.6,39.0,30.06,NE,52,3.0,3.0,94,0.00,,,0.00,WeatherCatV1.11B39,2013-01-03 08:32:00,
2013-01-03 03:37:00,40.6,39.0,30.05,NE,52,0.0,1.0,94,0.00,,,0.00,WeatherCatV1.11B39,2013-01-03 08:37:00,
2013-01-03 03:42:00,40.6,39.0,30.04,NE,52,2.0,2.0,94,0.00,,,0.00,WeatherCatV1.11B39,2013-01-03 08:42:00,
2013-01-03 03:47:00,40.6,39.0,30.04,NE,52,0.0,2.0,94,0.00,,,0.00,WeatherCatV1.11B39,2013-01-03 08:47:00,
2013-01-03 03:52:00,40.6,39.0,30.04,NE,52,0.0,2.0,94,0.00,,,0.00,WeatherCatV1.11B39,2013-01-03 08:52:00,
2013-01-03 03:57:00,40.6,39.0,30.05,NE,52,0.0,0.0,94,0.00,,,0.00,WeatherCatV1.11B39,2013-01-03 08:57:00,
2013-01-03 04:02:00,40.6,39.0,30.05,NE,52,0.0,0.0,94,0.00,,,0.00,WeatherCatV1.11B39,2013-01-03 09:02:00,
2013-01-03 04:07:00,40.6,39.0,30.05,NE,52,0.0,0.0,94,0.00,,,0.00,WeatherCatV1.11B39,2013-01-03 09:07:00,
2013-01-03 04:12:00,40.5,38.9,30.06,NE,52,2.0,4.0,94,0.00,,,0.00,WeatherCatV1.11B39,2013-01-03 09:12:00,
2013-01-03 04:16:00,40.4,38.8,30.06,NE,52,2.0,2.0,94,0.00,,,0.00,WeatherCatV1.11B39,2013-01-03 09:16:00,
2013-01-03 04:21:00,40.4,38.8,30.06,NE,52,0.0,0.0,94,0.00,,,0.00,WeatherCatV1.11B39,2013-01-03 09:21:00,
2013-01-03 04:26:00,40.4,38.8,30.06,NE,52,0.0,0.0,94,0.00,,,0.00,WeatherCatV1.11B39,2013-01-03 09:26:00,
2013-01-03 04:31:00,40.4,38.8,30.05,NE,52,3.0,3.0,94,0.00,,,0.00,WeatherCatV1.11B39,2013-01-03 09:31:00,
2013-01-03 04:36:00,40.3,38.7,30.04,NE,52,0.0,0.0,94,0.00,,,0.00,WeatherCatV1.11B39,2013-01-03 09:36:00,
2013-01-03 04:41:00,40.3,38.7,30.05,NE,52,1.0,3.0,94,0.00,,,0.00,WeatherCatV1.11B39,2013-01-03 09:41:00,
2013-01-03 04:46:00,40.3,38.7,30.05,NE,52,0.0,0.0,94,0.00,,,0.00,WeatherCatV1.11B39,2013-01-03 09:46:00,
2013-01-03 04:51:00,40.2,38.6,30.05,NE,52,0.0,0.0,94,0.00,,,0.00,WeatherCatV1.11B39,2013-01-03 09:51:00,
2013-01-03 04:56:00,40.2,38.6,30.06,NE,52,0.0,0.0,94,0.00,,,0.00,WeatherCatV1.11B39,2013-01-03 09:56:00,
2013-01-03 05:01:00,40.2,38.6,30.06,NE,52,0.0,0.0,94,0.00,,,0.00,WeatherCatV1.11B39,2013-01-03 10:01:00,
2013-01-03 05:06:00,40.1,38.5,30.06,NE,52,0.0,2.0,94,0.00,,,0.00,WeatherCatV1.11B39,2013-01-03 10:06:00,
2013-01-03 05:11:00,40.1,38.5,30.06,NE,52,0.0,0.0,94,0.00,,,0.00,WeatherCatV1.11B39,2013-01-03 10:11:00,
2013-01-03 05:16:00,40.1,38.5,30.06,NE,52,0.0,0.0,94,0.00,,,0.00,WeatherCatV1.11B39,2013-01-03 10:16:00,
2013-01-03 05:21:00,40.0,38.4,30.06,NE,52,0.0,0.0,94,0.00,,,0.00,WeatherCatV1.11B39,2013-01-03 10:21:00,
2013-01-03 05:26:00,40.0,38.4,30.06,NE,52,0.0,0.0,94,0.00,,,0.00,WeatherCatV1.11B39,2013-01-03 10:26:00,
2013-01-03 05:31:00,39.9,38.3,30.05,NE,52,0.0,0.0,94,0.00,,,0.00,WeatherCatV1.11B39,2013-01-03 10:31:00,
2013-01-03 05:36:00,39.9,38.3,30.06,NE,52,0.0,0.0,94,0.00,,,0.00,WeatherCatV1.11B39,2013-01-03 10:36:00,
2013-01-03 05:41:00,39.8,38.2,30.05,NE,52,0.0,0.0,94,0.00,,,0.00,WeatherCatV1.11B39,2013-01-03 10:41:00,
2013-01-03 05:46:00,39.8,38.2,30.06,NE,52,0.0,0.0,94,0.00,,,0.00,WeatherCatV1.11B39,2013-01-03 10:46:00,
2013-01-03 05:51:00,39.7,38.1,30.06,NE,52,0.0,0.0,94,0.00,,,0.00,WeatherCatV1.11B39,2013-01-03 10:51:00,
2013-01-03 05:56:00,39.7,38.1,30.06,NE,52,0.0,0.0,94,0.00,,,0.00,WeatherCatV1.11B39,2013-01-03 10:56:00,
2013-01-03 06:01:00,39.6,38.0,30.07,NE,52,0.0,0.0,94,0.00,,,0.00,WeatherCatV1.11B39,2013-01-03 11:01:00,
2013-01-03 06:06:00,39.6,38.0,30.06,NE,52,0.0,0.0,94,0.00,,,0.00,WeatherCatV1.11B39,2013-01-03 11:06:00,
2013-01-03 06:11:00,39.5,37.9,30.06,NE,52,0.0,0.0,94,0.00,,,0.00,WeatherCatV1.11B39,2013-01-03 11:11:00,
2013-01-03 06:16:00,39.5,37.9,30.06,NE,52,0.0,0.0,94,0.00,,,0.00,WeatherCatV1.11B39,2013-01-03 11:16:00,
2013-01-03 06:21:00,39.5,38.2,30.07,NE,52,0.0,0.0,95,0.00,,,0.00,WeatherCatV1.11B39,2013-01-03 11:21:00,
2013-01-03 06:26:00,39.4,38.1,30.07,NE,52,0.0,0.0,95,0.00,,,0.00,WeatherCatV1.11B39,2013-01-03 11:26:00,
2013-01-03 06:31:00,39.3,38.0,30.07,NE,52,0.0,0.0,95,0.00,,,0.00,WeatherCatV1.11B39,2013-01-03 11:31:00,
2013-01-03 06:36:00,39.3,38.0,30.07,NE,52,0.0,0.0,95,0.00,,,0.00,WeatherCatV1.11B39,2013-01-03 11:36:00,
2013-01-03 06:41:00,39.2,37.9,30.07,NE,52,0.0,0.0,95,0.00,,,0.00,WeatherCatV1.11B39,2013-01-03 11:41:00,
2013-01-03 06:46:00,39.2,37.9,30.07,NE,52,0.0,0.0,95,0.00,,,0.00,WeatherCatV1.11B39,2013-01-03 11:46:00,
2013-01-03 06:51:00,39.1,37.8,30.07,NE,52,0.0,0.0,95,0.00,,,0.00,WeatherCatV1.11B39,2013-01-03 11:51:00,
2013-01-03 06:56:00,39.1,37.8,30.07,NE,52,0.0,0.0,95,0.00,,,0.00,WeatherCatV1.11B39,2013-01-03 11:56:00,
2013-01-03 07:01:00,39.0,37.7,30.07,NE,52,0.0,0.0,95,0.00,,,0.00,WeatherCatV1.11B39,2013-01-03 12:01:00,
2013-01-03 07:06:00,38.9,37.6,30.06,NE,52,0.0,0.0,95,0.00,,,0.00,WeatherCatV1.11B39,2013-01-03 12:06:00,
2013-01-03 07:11:00,38.9,37.6,30.08,NE,52,0.0,0.0,95,0.00,,,0.00,WeatherCatV1.11B39,2013-01-03 12:11:00,
2013-01-03 07:16:00,38.8,37.5,30.07,NE,52,0.0,0.0,95,0.00,,,0.00,WeatherCatV1.11B39,2013-01-03 12:16:00,
2013-01-03 07:21:00,38.8,37.5,30.07,NE,52,0.0,0.0,95,0.00,,,0.00,WeatherCatV1.11B39,2013-01-03 12:21:00,
2013-01-03 07:26:00,38.7,37.4,30.08,NE,52,0.0,0.0,95,0.00,,,0.00,WeatherCatV1.11B39,2013-01-03 12:26:00,
2013-01-03 07:31:00,38.6,37.3,30.07,NE,52,0.0,0.0,95,0.00,,,0.00,WeatherCatV1.11B39,2013-01-03 12:31:00,
2013-01-03 07:36:00,38.5,37.2,30.07,NE,52,0.0,1.0,95,0.00,,,0.00,WeatherCatV1.11B39,2013-01-03 12:36:00,
2013-01-03 07:41:00,38.5,37.2,30.08,NE,52,0.0,0.0,95,0.00,,,0.00,WeatherCatV1.11B39,2013-01-03 12:41:00,
2013-01-03 07:46:00,38.4,37.1,30.08,NE,52,0.0,0.0,95,0.00,,,0.00,WeatherCatV1.11B39,2013-01-03 12:46:00,
2013-01-03 07:51:00,38.4,37.1,30.08,NE,52,0.0,0.0,95,0.00,,,0.00,WeatherCatV1.11B39,2013-01-03 12:51:00,
2013-01-03 07:56:00,38.3,37.0,30.08,NE,52,0.0,0.0,95,0.00,,,0.00,WeatherCatV1.11B39,2013-01-03 12:56:00,
2013-01-03 08:01:00,38.3,37.0,30.08,NE,52,2.0,2.0,95,0.00,,,0.00,WeatherCatV1.11B39,2013-01-03 13:01:00,
2013-01-03 08:06:00,38.3,37.0,30.08,NE,52,0.0,0.0,95,0.00,,,0.00,WeatherCatV1.11B39,2013-01-03 13:06:00,
2013-01-03 08:11:00,38.3,37.0,30.08,NE,52,0.0,0.0,95,0.00,,,0.00,WeatherCatV1.11B39,2013-01-03 13:11:00,
2013-01-03 08:16:00,38.3,37.0,30.09,NE,52,2.0,3.0,95,0.00,,,0.00,WeatherCatV1.11B39,2013-01-03 13:16:00,
2013-01-03 08:21:00,38.3,37.0,30.08,NE,52,0.0,0.0,95,0.00,,,0.00,WeatherCatV1.11B39,2013-01-03 13:21:00,
2013-01-03 08:26:00,38.3,37.0,30.09,NE,52,0.0,0.0,95,0.00,,,0.00,WeatherCatV1.11B39,2013-01-03 13:26:00,
2013-01-03 08:31:00,38.3,37.0,30.09,NE,52,0.0,0.0,95,0.00,,,0.00,WeatherCatV1.11B39,2013-01-03 13:31:00,
2013-01-03 08:36:00,38.3,37.0,30.09,NE,52,0.0,0.0,95,0.00,,,0.00,WeatherCatV1.11B39,2013-01-03 13:36:00,
2013-01-03 08:41:00,38.4,37.1,30.08,NE,52,0.0,0.0,95,0.00,,,0.00,WeatherCatV1.11B39,2013-01-03 13:41:00,
2013-01-03 08:46:00,38.5,37.2,30.08,NE,52,0.0,0.0,95,0.00,,,0.00,WeatherCatV1.11B39,2013-01-03 13:46:00,
2013-01-03 08:51:00,38.7,37.7,30.09,NE,52,2.0,2.0,96,0.00,,,0.00,WeatherCatV1.11B39,2013-01-03 13:51:00,
2013-01-03 08:56:00,38.8,37.5,30.09,NE,52,0.0,0.0,95,0.00,,,0.00,WeatherCatV1.11B39,2013-01-03 13:56:00,
2013-01-03 09:01:00,38.9,37.6,30.09,NE,52,0.0,0.0,95,0.00,,,0.00,WeatherCatV1.11B39,2013-01-03 14:01:00,
2013-01-03 09:06:00,39.0,37.7,30.09,NE,52,0.0,0.0,95,0.00,,,0.00,WeatherCatV1.11B39,2013-01-03 14:06:00,
2013-01-03 09:11:00,39.0,37.7,30.09,NE,52,0.0,0.0,95,0.00,,,0.00,WeatherCatV1.11B39,2013-01-03 14:11:00,
2013-01-03 09:16:00,39.1,38.1,30.09,NE,52,0.0,1.0,96,0.00,,,0.00,WeatherCatV1.11B39,2013-01-03 14:16:00,
2013-01-03 09:20:00,39.2,38.2,30.09,NE,52,0.0,0.0,96,0.00,,,0.00,WeatherCatV1.11B39,2013-01-03 14:20:00,
2013-01-03 09:25:00,39.3,38.3,30.09,NE,52,0.0,0.0,96,0.00,,,0.00,WeatherCatV1.11B39,2013-01-03 14:25:00,
2013-01-03 09:30:00,39.3,38.0,30.10,NE,52,0.0,0.0,95,0.00,,,0.00,WeatherCatV1.11B39,2013-01-03 14:30:00,
2013-01-03 09:35:00,39.4,38.1,30.10,NE,52,0.0,0.0,95,0.00,,,0.00,WeatherCatV1.11B39,2013-01-03 14:35:00,
2013-01-03 09:40:00,39.5,38.2,30.10,NE,52,0.0,0.0,95,0.00,,,0.00,WeatherCatV1.11B39,2013-01-03 14:40:00,
2013-01-03 09:45:00,39.5,38.2,30.10,NE,52,0.0,0.0,95,0.00,,,0.00,WeatherCatV1.11B39,2013-01-03 14:45:00,
2013-01-03 09:50:00,39.6,38.3,30.10,NE,52,0.0,0.0,95,0.00,,,0.00,WeatherCatV1.11B39,2013-01-03 14:50:00,
2013-01-03 09:55:00,39.7,38.4,30.10,NE,52,0.0,0.0,95,0.00,,,0.00,WeatherCatV1.11B39,2013-01-03 14:55:00,
2013-01-03 10:00:00,39.9,38.6,30.10,NE,52,0.0,0.0,95,0.00,,,0.00,WeatherCatV1.11B39,2013-01-03 15:00:00,
2013-01-03 10:05:00,40.0,38.7,30.11,NE,52,0.0,0.0,95,0.00,,,0.00,WeatherCatV1.11B39,2013-01-03 15:05:00,
2013-01-03 10:10:00,40.2,38.9,30.11,NE,52,0.0,0.0,95,0.00,,,0.00,WeatherCatV1.11B39,2013-01-03 15:10:00,
2013-01-03 10:15:00,40.3,39.0,30.11,NE,52,0.0,1.0,95,0.00,,,0.00,WeatherCatV1.11B39,2013-01-03 15:15:00,
2013-01-03 10:20:00,40.4,39.1,30.12,NE,52,2.0,3.0,95,0.00,,,0.00,WeatherCatV1.11B39,2013-01-03 15:20:00,
2013-01-03 10:25:00,40.6,39.0,30.12,NE,52,1.0,2.0,94,0.00,,,0.00,WeatherCatV1.11B39,2013-01-03 15:25:00,
2013-01-03 10:30:00,40.9,39.0,30.12,NE,52,2.0,2.0,93,0.00,,,0.00,WeatherCatV1.11B39,2013-01-03 15:30:00,
2013-01-03 10:35:00,41.2,39.1,30.12,NE,52,0.0,1.0,92,0.00,,,0.00,WeatherCatV1.11B39,2013-01-03 15:35:00,
2013-01-03 10:40:00,41.5,39.1,30.12,NE,52,0.0,2.0,91,0.00,,,0.00,WeatherCatV1.11B39,2013-01-03 15:40:00,
2013-01-03 10:45:00,41.9,39.2,30.13,NE,52,2.0,3.0,90,0.00,,,0.00,WeatherCatV1.11B39,2013-01-03 15:45:00,
2013-01-03 10:50:00,42.3,39.3,30.13,NE,52,2.0,2.0,89,0.00,,,0.00,WeatherCatV1.11B39,2013-01-03 15:50:00,
2013-01-03 10:55:00,42.7,38.5,30.12,WSW,249,2.0,4.0,85,0.00,,,0.00,WeatherCatV1.11B39,2013-01-03 15:55:00,
2013-01-03 11:00:00,43.1,37.4,30.12,WSW,249,3.0,3.0,80,0.00,,,0.00,WeatherCatV1.11B39,2013-01-03 16:00:00,
2013-01-03 11:05:00,43.4,37.0,30.12,WSW,248,3.0,3.0,78,0.00,,,0.00,WeatherCatV1.11B39,2013-01-03 16:05:00,
2013-01-03 11:10:00,43.7,37.0,30.12,WSW,248,0.0,3.0,77,0.00,,,0.00,WeatherCatV1.11B39,2013-01-03 16:10:00,
2013-01-03 11:15:00,43.9,37.5,30.12,WSW,248,1.0,2.0,78,0.00,,,0.00,WeatherCatV1.11B39,2013-01-03 16:15:00,
2013-01-03 11:20:00,44.2,37.1,30.12,SW,223,3.0,4.0,76,0.00,,,0.00,WeatherCatV1.11B39,2013-01-03 16:20:00,
2013-01-03 11:25:00,44.4,37.3,30.12,SW,223,0.0,2.0,76,0.00,,,0.00,WeatherCatV1.11B39,2013-01-03 16:25:00,
2013-01-03 11:30:00,44.6,36.8,30.12,SSE,161,5.0,5.0,74,0.00,,,0.00,WeatherCatV1.11B39,2013-01-03 16:30:00,
2013-01-03 11:35:00,44.7,36.6,30.12,SE,131,4.0,7.0,73,0.00,,,0.00,WeatherCatV1.11B39,2013-01-03 16:35:00,
2013-01-03 11:40:00,44.8,36.3,30.12,SE,133,5.0,8.0,72,0.00,,,0.00,WeatherCatV1.11B39,2013-01-03 16:40:00,
2013-01-03 11:45:00,44.8,36.3,30.12,SE,136,5.0,7.0,72,0.00,,,0.00,WeatherCatV1.11B39,2013-01-03 16:45:00,
2013-01-03 11:50:00,44.9,36.1,30.12,SSE,153,5.0,7.0,71,0.00,,,0.00,WeatherCatV1.11B39,2013-01-03 16:50:00,
2013-01-03 11:55:00,45.0,36.5,30.12,SE,138,8.0,8.0,72,0.00,,,0.00,WeatherCatV1.11B39,2013-01-03 16:55:00,
2013-01-03 12:00:00,45.0,35.8,30.11,SE,134,7.0,8.0,70,0.00,,,0.00,WeatherCatV1.11B39,2013-01-03 17:00:00,
2013-01-03 12:05:00,45.1,35.5,30.11,SSE,155,6.0,9.0,69,0.00,,,0.00,WeatherCatV1.11B39,2013-01-03 17:05:00,
2013-01-03 12:10:00,45.1,35.5,30.11,SE,142,6.0,8.0,69,0.00,,,0.00,WeatherCatV1.11B39,2013-01-03 17:10:00,
2013-01-03 12:15:00,45.4,35.5,30.11,South,177,2.0,7.0,68,0.00,,,0.00,WeatherCatV1.11B39,2013-01-03 17:15:00,
2013-01-03 12:20:00,45.5,35.6,30.11,SSE,156,5.0,9.0,68,0.00,,,0.00,WeatherCatV1.11B39,2013-01-03 17:20:00,
2013-01-03 12:25:00,45.5,35.9,30.11,SSE,150,4.0,7.0,69,0.00,,,0.00,WeatherCatV1.11B39,2013-01-03 17:25:00,
2013-01-03 12:30:00,45.6,35.3,30.11,SSE,148,4.0,5.0,67,0.00,,,0.00,WeatherCatV1.11B39,2013-01-03 17:30:00,
2013-01-03 12:35:00,45.7,35.4,30.10,SSE,150,7.0,9.0,67,0.00,,,0.00,WeatherCatV1.11B39,2013-01-03 17:35:00,
2013-01-03 12:40:00,45.7,35.4,30.10,ESE,116,2.0,7.0,67,0.00,,,0.00,WeatherCatV1.11B39,2013-01-03 17:40:00,
2013-01-03 12:45:00,45.8,35.8,30.10,SE,125,5.0,5.0,68,0.00,,,0.00,WeatherCatV1.11B39,2013-01-03 17:45:00,
2013-01-03 12:50:00,46.0,35.7,30.10,SE,144,5.0,7.0,67,0.00,,,0.00,WeatherCatV1.11B39,2013-01-03 17:50:00,
2013-01-03 12:55:00,46.1,35.0,30.09,ESE,123,4.0,6.0,65,0.00,,,0.00,WeatherCatV1.11B39,2013-01-03 17:55:00,
2013-01-03 13:00:00,46.2,36.2,30.09,SSE,165,6.0,7.0,68,0.00,,,0.00,WeatherCatV1.11B39,2013-01-03 18:00:00,
2013-01-03 13:05:00,46.3,35.6,30.09,SSE,168,4.0,6.0,66,0.00,,,0.00,WeatherCatV1.11B39,2013-01-03 18:05:00,
2013-01-03 13:10:00,46.6,35.5,30.09,SSE,156,6.0,7.0,65,0.00,,,0.00,WeatherCatV1.11B39,2013-01-03 18:10:00,
2013-01-03 13:15:00,46.6,35.1,30.08,SE,136,4.0,7.0,64,0.00,,,0.00,WeatherCatV1.11B39,2013-01-03 18:15:00,
2013-01-03 13:20:00,46.7,34.8,30.09,SE,138,4.0,5.0,63,0.00,,,0.00,WeatherCatV1.11B39,2013-01-03 18:20:00,
2013-01-03 13:25:00,46.9,34.2,30.10,ESE,105,4.0,8.0,61,0.00,,,0.00,WeatherCatV1.11B39,2013-01-03 18:25:00,
2013-01-03 13:30:00,47.1,34.8,30.09,ESE,112,6.0,7.0,62,0.00,,,0.00,WeatherCatV1.11B39,2013-01-03 18:30:00,
2013-01-03 13:35:00,47.3,34.5,30.09,SSE,154,2.0,4.0,61,0.00,,,0.00,WeatherCatV1.11B39,2013-01-03 18:35:00,
2013-01-03 13:40:00,47.7,36.1,30.09,SE,125,5.0,7.0,64,0.00,,,0.00,WeatherCatV1.11B39,2013-01-03 18:40:00,
2013-01-03 13:45:00,47.6,34.4,30.09,SSE,167,5.0,10.0,60,0.00,,,0.00,WeatherCatV1.11B39,2013-01-03 18:45:00,
2013-01-03 13:50:00,47.7,34.9,30.09,SSW,205,5.0,6.0,61,0.00,,,0.00,WeatherCatV1.11B39,2013-01-03 18:50:00,
2013-01-03 13:55:00,47.7,34.1,30.09,South,190,1.0,6.0,59,0.00,,,0.00,WeatherCatV1.11B39,2013-01-03 18:55:00,
2013-01-03 14:00:00,47.9,34.3,30.09,South,190,4.0,10.0,59,0.00,,,0.00,WeatherCatV1.11B39,2013-01-03 19:00:00,
2013-01-03 14:05:00,48.0,34.4,30.09,SSW,205,4.0,8.0,59,0.00,,,0.00,WeatherCatV1.11B39,2013-01-03 19:05:00,
2013-01-03 14:10:00,48.3,35.5,30.08,SE,133,7.0,9.0,61,0.00,,,0.00,WeatherCatV1.11B39,2013-01-03 19:10:00,
2013-01-03 14:15:00,48.0,34.4,30.08,SSE,155,6.0,9.0,59,0.00,,,0.00,WeatherCatV1.11B39,2013-01-03 19:15:00,
2013-01-03 14:54:00,47.5,34.7,30.09,SSW,210,3.0,6.0,61,0.00,,,0.00,WeatherCatV1.11B39,2013-01-03 19:54:00,
2013-01-03 14:59:00,47.6,34.8,30.09,WSW,250,6.0,8.0,61,0.00,,,0.00,WeatherCatV1.11B39,2013-01-03 19:59:00,
2013-01-03 15:04:00,47.6,35.2,30.09,WSW,248,4.0,6.0,62,0.00,,,0.00,WeatherCatV1.11B39,2013-01-03 20:04:00,
2013-01-03 15:09:00,47.7,34.9,30.10,SSW,205,5.0,8.0,61,0.00,,,0.00,WeatherCatV1.11B39,2013-01-03 20:09:00,
2013-01-03 15:14:00,47.5,33.9,30.10,WSW,256,4.0,8.0,59,0.00,,,0.00,WeatherCatV1.11B39,2013-01-03 20:14:00,
2013-01-03 15:19:00,47.4,34.6,30.11,West,263,5.0,8.0,61,0.00,,,0.00,WeatherCatV1.11B39,2013-01-03 20:19:00,
2013-01-03 15:24:00,47.2,34.4,30.11,SSW,202,5.0,5.0,61,0.00,,,0.00,WeatherCatV1.11B39,2013-01-03 20:24:00,
2013-01-03 15:29:00,47.1,33.9,30.11,SW,228,5.0,8.0,60,0.00,,,0.00,WeatherCatV1.11B39,2013-01-03 20:29:00,
2013-01-03 15:34:00,46.9,33.8,30.11,West,275,4.0,7.0,60,0.00,,,0.00,WeatherCatV1.11B39,2013-01-03 20:34:00,
2013-01-03 15:39:00,46.8,33.7,30.11,SW,225,3.0,10.0,60,0.00,,,0.00,WeatherCatV1.11B39,2013-01-03 20:39:00,
2013-01-03 15:44:00,46.8,34.1,30.12,WSW,253,3.0,6.0,61,0.00,,,0.00,WeatherCatV1.11B39,2013-01-03 20:44:00,
2013-01-03 15:49:00,46.8,34.1,30.12,West,279,7.0,9.0,61,0.00,,,0.00,WeatherCatV1.11B39,2013-01-03 20:49:00,
2013-01-03 15:54:00,46.7,33.1,30.12,SW,233,5.0,8.0,59,0.00,,,0.00,WeatherCatV1.11B39,2013-01-03 20:54:00,
2013-01-03 15:59:00,46.5,33.4,30.12,West,260,8.0,10.0,60,0.00,,,0.00,WeatherCatV1.11B39,2013-01-03 20:59:00,
2013-01-03 16:04:00,46.2,33.1,30.12,WSW,253,6.0,10.0,60,0.00,,,0.00,WeatherCatV1.11B39,2013-01-03 21:04:00,
2013-01-03 16:09:00,45.9,33.6,30.13,WNW,282,2.0,8.0,62,0.00,,,0.00,WeatherCatV1.11B39,2013-01-03 21:09:00,
2013-01-03 16:14:00,45.9,34.0,30.13,SSW,213,4.0,9.0,63,0.00,,,0.00,WeatherCatV1.11B39,2013-01-03 21:14:00,
2013-01-03 16:19:00,45.9,34.0,30.13,WSW,242,5.0,6.0,63,0.00,,,0.00,WeatherCatV1.11B39,2013-01-03 21:19:00,
2013-01-03 16:26:00,45.9,34.0,30.13,SSW,202,3.0,6.0,63,0.00,,,0.00,WeatherCatV1.11B39,2013-01-03 21:26:00,
2013-01-03 16:31:00,46.0,34.1,30.13,South,191,2.0,6.0,63,0.00,,,0.00,WeatherCatV1.11B39,2013-01-03 21:31:00,
2013-01-03 16:36:00,46.2,34.3,30.14,WSW,246,3.0,5.0,63,0.00,,,0.00,WeatherCatV1.11B39,2013-01-03 21:36:00,
2013-01-03 16:41:00,46.1,33.8,30.14,West,269,3.0,6.0,62,0.00,,,0.00,WeatherCatV1.11B39,2013-01-03 21:41:00,
2013-01-03 16:46:00,46.1,34.2,30.14,West,269,5.0,7.0,63,0.00,,,0.00,WeatherCatV1.11B39,2013-01-03 21:46:00,
2013-01-03 16:51:00,46.2,34.3,30.14,WSW,253,4.0,5.0,63,0.00,,,0.00,WeatherCatV1.11B39,2013-01-03 21:51:00,
2013-01-03 16:56:00,46.2,34.3,30.15,SW,227,4.0,6.0,63,0.00,,,0.00,WeatherCatV1.11B39,2013-01-03 21:56:00,
2013-01-03 17:01:00,45.9,34.0,30.15,West,263,3.0,5.0,63,0.00,,,0.00,WeatherCatV1.11B39,2013-01-03 22:01:00,
2013-01-03 17:06:00,45.6,34.1,30.16,SSW,207,4.0,7.0,64,0.00,,,0.00,WeatherCatV1.11B39,2013-01-03 22:06:00,
2013-01-03 17:11:00,45.4,33.9,30.16,SSW,211,5.0,8.0,64,0.00,,,0.00,WeatherCatV1.11B39,2013-01-03 22:11:00,
2013-01-03 17:16:00,44.9,33.5,30.16,SW,233,5.0,7.0,64,0.00,,,0.00,WeatherCatV1.11B39,2013-01-03 22:16:00,
2013-01-03 17:21:00,44.4,33.4,30.16,SW,218,3.0,12.0,65,0.00,,,0.00,WeatherCatV1.11B39,2013-01-03 22:21:00,
2013-01-03 17:26:00,44.0,33.4,30.16,SW,226,2.0,6.0,66,0.00,,,0.00,WeatherCatV1.11B39,2013-01-03 22:26:00,
2013-01-03 17:31:00,43.7,33.5,30.16,SSW,213,4.0,5.0,67,0.00,,,0.00,WeatherCatV1.11B39,2013-01-03 22:31:00,
2013-01-03 17:36:00,43.4,33.2,30.16,SSW,209,2.0,7.0,67,0.00,,,0.00,WeatherCatV1.11B39,2013-01-03 22:36:00,
2013-01-03 17:41:00,43.0,33.5,30.16,SW,219,2.0,6.0,69,0.00,,,0.00,WeatherCatV1.11B39,2013-01-03 22:41:00,
2013-01-03 17:46:00,42.6,33.9,30.16,West,279,4.0,6.0,71,0.00,,,0.00,WeatherCatV1.11B39,2013-01-03 22:46:00,
2013-01-03 17:51:00,42.2,33.5,30.17,West,266,0.0,6.0,71,0.00,,,0.00,WeatherCatV1.11B39,2013-01-03 22:51:00,
2013-01-03 17:56:00,42.0,33.6,30.17,WSW,245,2.0,3.0,72,0.00,,,0.00,WeatherCatV1.11B39,2013-01-03 22:56:00,
2013-01-03 18:01:00,41.8,33.4,30.17,WSW,247,2.0,3.0,72,0.00,,,0.00,WeatherCatV1.11B39,2013-01-03 23:01:00,
2013-01-03 18:06:00,41.6,33.3,30.17,WSW,247,2.0,3.0,72,0.00,,,0.00,WeatherCatV1.11B39,2013-01-03 23:06:00,
2013-01-03 18:11:00,41.3,33.6,30.18,WSW,247,0.0,2.0,74,0.00,,,0.00,WeatherCatV1.11B39,2013-01-03 23:11:00,
2013-01-03 18:16:00,41.1,33.1,30.18,WSW,247,0.0,0.0,73,0.00,,,0.00,WeatherCatV1.11B39,2013-01-03 23:16:00,
2013-01-03 18:21:00,40.9,33.3,30.18,WSW,247,0.0,0.0,74,0.00,,,0.00,WeatherCatV1.11B39,2013-01-03 23:21:00,
2013-01-03 18:26:00,40.6,33.0,30.18,WSW,247,0.0,0.0,74,0.00,,,0.00,WeatherCatV1.11B39,2013-01-03 23:26:00,
2013-01-03 18:30:00,47.9,24.1,30.31,SE,139,8.0,14.0,39,0.00,,,0.00,WeatherCatV1.11B39,2013-01-03 23:30:00,
2013-01-03 18:31:00,40.3,32.3,30.18,WSW,247,0.0,1.0,73,0.00,,,0.00,WeatherCatV1.11B39,2013-01-03 23:31:00,
2013-01-03 18:35:00,47.9,24.8,30.31,SSE,153,8.0,8.0,40,0.00,,,0.00,WeatherCatV1.11B39,2013-01-03 23:35:00,
2013-01-03 18:40:00,48.0,23.0,30.31,SSE,157,8.0,9.0,37,0.00,,,0.00,WeatherCatV1.11B39,2013-01-03 23:40:00,
2013-01-03 18:45:00,48.1,24.3,30.31,SE,137,7.0,11.0,39,0.00,,,0.00,WeatherCatV1.11B39,2013-01-03 23:45:00,
2013-01-03 18:50:00,48.0,23.0,30.31,SE,126,7.0,7.0,37,0.00,,,0.00,WeatherCatV1.11B39,2013-01-03 23:50:00,
2013-01-03 18:55:00,48.0,23.0,30.30,ESE,122,6.0,8.0,37,0.00,,,0.00,WeatherCatV1.11B39,2013-01-03 23:55:00,
2013-01-03 19:00:00,47.9,24.1,30.31,SE,139,8.0,14.0,39,0.00,,,0.00,WeatherCatV1.11B39,2013-01-04 00:00:00,
2013-01-03 19:05:00,47.9,24.8,30.31,SSE,153,8.0,8.0,40,0.00,,,0.00,WeatherCatV1.11B39,2013-01-04 00:05:00,
2013-01-03 19:06:00,48.2,24.4,30.30,SE,135,6.0,6.0,39,0.00,,,0.00,WeatherCatV1.11B39,2013-01-04 00:06:00,
2013-01-03 19:10:00,48.0,23.0,30.31,SSE,157,8.0,9.0,37,0.00,,,0.00,WeatherCatV1.11B39,2013-01-04 00:10:00,
2013-01-03 19:15:00,48.1,24.3,30.31,SE,137,7.0,11.0,39,0.00,,,0.00,WeatherCatV1.11B39,2013-01-04 00:15:00,
2013-01-03 19:20:00,48.0,23.0,30.31,SE,126,7.0,7.0,37,0.00,,,0.00,WeatherCatV1.11B39,2013-01-04 00:20:00,
2013-01-03 19:25:00,48.0,23.0,30.30,ESE,122,6.0,8.0,37,0.00,,,0.00,WeatherCatV1.11B39,2013-01-04 00:25:00,
2013-01-03 19:30:00,47.9,24.1,30.31,SE,139,8.0,14.0,39,0.00,,,0.00,WeatherCatV1.11B39,2013-01-04 00:30:00,
2013-01-03 19:35:00,47.9,24.8,30.31,SSE,153,8.0,8.0,40,0.00,,,0.00,WeatherCatV1.11B39,2013-01-04 00:35:00,
2013-01-03 19:36:00,48.2,24.4,30.30,SE,135,6.0,6.0,39,0.00,,,0.00,WeatherCatV1.11B39,2013-01-04 00:36:00,
2013-01-03 19:40:00,48.0,23.0,30.31,SSE,157,8.0,9.0,37,0.00,,,0.00,WeatherCatV1.11B39,2013-01-04 00:40:00,
2013-01-03 19:45:00,48.1,24.3,30.31,SE,137,7.0,11.0,39,0.00,,,0.00,WeatherCatV1.11B39,2013-01-04 00:45:00,
2013-01-03 19:50:00,48.0,23.0,30.31,SE,126,7.0,7.0,37,0.00,,,0.00,WeatherCatV1.11B39,2013-01-04 00:50:00,
2013-01-03 19:55:00,48.0,23.0,30.30,ESE,122,6.0,8.0,37,0.00,,,0.00,WeatherCatV1.11B39,2013-01-04 00:55:00,
2013-01-03 20:00:00,47.9,24.1,30.31,SE,139,8.0,14.0,39,0.00,,,0.00,WeatherCatV1.11B39,2013-01-04 01:00:00,
2013-01-03 20:05:00,47.9,24.8,30.31,SSE,153,8.0,8.0,40,0.00,,,0.00,WeatherCatV1.11B39,2013-01-04 01:05:00,
2013-01-03 20:06:00,48.2,24.4,30.30,SE,135,6.0,6.0,39,0.00,,,0.00,WeatherCatV1.11B39,2013-01-04 01:06:00,
2013-01-03 20:10:00,48.0,23.0,30.31,SSE,157,8.0,9.0,37,0.00,,,0.00,WeatherCatV1.11B39,2013-01-04 01:10:00,
2013-01-03 20:15:00,48.1,24.3,30.31,SE,137,7.0,11.0,39,0.00,,,0.00,WeatherCatV1.11B39,2013-01-04 01:15:00,
2013-01-03 20:20:00,48.0,23.0,30.31,SE,126,7.0,7.0,37,0.00,,,0.00,WeatherCatV1.11B39,2013-01-04 01:20:00,
2013-01-03 20:25:00,48.0,23.0,30.30,ESE,122,6.0,8.0,37,0.00,,,0.00,WeatherCatV1.11B39,2013-01-04 01:25:00,
2013-01-03 20:35:00,47.9,24.8,30.31,SSE,153,8.0,8.0,40,0.00,,,0.00,WeatherCatV1.11B39,2013-01-04 01:35:00,
2013-01-03 20:36:00,48.2,24.4,30.30,SE,135,6.0,6.0,39,0.00,,,0.00,WeatherCatV1.11B39,2013-01-04 01:36:00,
2013-01-03 20:40:00,48.0,23.0,30.31,SSE,157,8.0,13.0,37,0.00,,,0.00,WeatherCatV1.11B39,2013-01-04 01:40:00,
2013-01-03 20:45:00,48.0,23.0,30.31,SE,139,7.0,9.0,37,0.00,,,0.00,WeatherCatV1.11B39,2013-01-04 01:45:00,
2013-01-03 20:50:00,48.1,23.1,30.31,SE,127,7.0,11.0,37,0.00,,,0.00,WeatherCatV1.11B39,2013-01-04 01:50:00,
2013-01-03 20:55:00,48.0,23.0,30.31,SE,124,6.0,7.0,37,0.00,,,0.00,WeatherCatV1.11B39,2013-01-04 01:55:00,
2013-01-03 21:05:00,47.9,24.8,30.31,SSE,153,8.0,8.0,40,0.00,,,0.00,WeatherCatV1.11B39,2013-01-04 02:05:00,
2013-01-03 21:08:00,48.2,23.2,30.30,SE,134,6.0,6.0,37,0.00,,,0.00,WeatherCatV1.11B39,2013-01-04 02:08:00,
2013-01-03 21:10:00,48.0,23.6,30.31,SSE,159,8.0,8.0,38,0.00,,,0.00,WeatherCatV1.11B39,2013-01-04 02:10:00,
2013-01-03 21:15:00,48.0,23.0,30.31,SE,139,7.0,9.0,37,0.00,,,0.00,WeatherCatV1.11B39,2013-01-04 02:15:00,
2013-01-03 21:20:00,48.1,23.1,30.31,SE,127,7.0,11.0,37,0.00,,,0.00,WeatherCatV1.11B39,2013-01-04 02:20:00,
2013-01-03 21:25:00,48.0,23.0,30.31,SE,124,6.0,7.0,37,0.00,,,0.00,WeatherCatV1.11B39,2013-01-04 02:25:00,
2013-01-03 21:35:00,47.9,24.8,30.31,SSE,153,8.0,8.0,40,0.00,,,0.00,WeatherCatV1.11B39,2013-01-04 02:35:00,
2013-01-03 21:38:00,48.2,23.2,30.30,SE,134,6.0,6.0,37,0.00,,,0.00,WeatherCatV1.11B39,2013-01-04 02:38:00,
2013-01-03 21:40:00,48.0,23.6,30.31,SSE,159,8.0,8.0,38,0.00,,,0.00,WeatherCatV1.11B39,2013-01-04 02:40:00,
2013-01-03 21:45:00,48.0,23.0,30.31,SE,139,7.0,9.0,37,0.00,,,0.00,WeatherCatV1.11B39,2013-01-04 02:45:00,
2013-01-03 21:50:00,48.0,22.3,30.30,SE,124,7.0,9.0,36,0.00,,,0.00,WeatherCatV1.11B39,2013-01-04 02:50:00,
2013-01-03 21:55:00,48.0,23.6,30.30,ESE,123,6.0,9.0,38,0.00,,,0.00,WeatherCatV1.11B39,2013-01-04 02:55:00,
2013-01-03 22:05:00,47.9,24.8,30.31,SSE,153,8.0,8.0,40,0.00,,,0.00,WeatherCatV1.11B39,2013-01-04 03:05:00,
2013-01-03 22:07:00,48.2,23.2,30.30,SE,134,6.0,6.0,37,0.00,,,0.00,WeatherCatV1.11B39,2013-01-04 03:07:00,
2013-01-03 22:10:00,48.0,23.6,30.31,SSE,159,8.0,8.0,38,0.00,,,0.00,WeatherCatV1.11B39,2013-01-04 03:10:00,
2013-01-03 22:15:00,48.0,23.0,30.31,SE,139,7.0,9.0,37,0.00,,,0.00,WeatherCatV1.11B39,2013-01-04 03:15:00,
2013-01-03 22:20:00,48.0,22.3,30.30,SE,124,7.0,9.0,36,0.00,,,0.00,WeatherCatV1.11B39,2013-01-04 03:20:00,
2013-01-03 22:25:00,48.0,23.6,30.30,ESE,123,6.0,9.0,38,0.00,,,0.00,WeatherCatV1.11B39,2013-01-04 03:25:00,
2013-01-03 22:35:00,47.9,24.8,30.31,SSE,153,8.0,8.0,40,0.00,,,0.00,WeatherCatV1.11B39,2013-01-04 03:35:00,
2013-01-03 22:37:00,48.2,23.2,30.30,SE,134,6.0,6.0,37,0.00,,,0.00,WeatherCatV1.11B39,2013-01-04 03:37:00,
2013-01-03 22:40:00,48.0,23.6,30.31,SSE,159,8.0,8.0,38,0.00,,,0.00,WeatherCatV1.11B39,2013-01-04 03:40:00,
2013-01-03 22:45:00,48.0,23.0,30.31,SE,139,7.0,9.0,37,0.00,,,0.00,WeatherCatV1.11B39,2013-01-04 03:45:00,
2013-01-03 22:50:00,48.0,22.3,30.30,SE,124,7.0,9.0,36,0.00,,,0.00,WeatherCatV1.11B39,2013-01-04 03:50:00,
2013-01-03 22:55:00,48.0,23.6,30.30,ESE,123,6.0,9.0,38,0.00,,,0.00,WeatherCatV1.11B39,2013-01-04 03:55:00,
2013-01-03 23:05:00,47.9,24.8,30.31,SSE,153,8.0,8.0,40,0.00,,,0.00,WeatherCatV1.11B39,2013-01-04 04:05:00,
2013-01-03 23:07:00,48.2,23.2,30.30,SE,134,6.0,6.0,37,0.00,,,0.00,WeatherCatV1.11B39,2013-01-04 04:07:00,
2013-01-03 23:10:00,48.0,23.6,30.31,SSE,159,8.0,8.0,38,0.00,,,0.00,WeatherCatV1.11B39,2013-01-04 04:10:00,
2013-01-03 23:15:00,48.0,23.0,30.31,SE,139,7.0,9.0,37,0.00,,,0.00,WeatherCatV1.11B39,2013-01-04 04:15:00,
2013-01-03 23:20:00,48.0,22.3,30.30,SE,124,7.0,9.0,36,0.00,,,0.00,WeatherCatV1.11B39,2013-01-04 04:20:00,
2013-01-03 23:25:00,48.0,23.6,30.30,ESE,123,6.0,9.0,38,0.00,,,0.00,WeatherCatV1.11B39,2013-01-04 04:25:00,
2013-01-03 23:35:00,47.9,24.8,30.31,SSE,153,8.0,8.0,40,0.00,,,0.00,WeatherCatV1.11B39,2013-01-04 04:35:00,
2013-01-03 23:37:00,48.2,23.2,30.30,SE,134,6.0,6.0,37,0.00,,,0.00,WeatherCatV1.11B39,2013-01-04 04:37:00,
2013-01-03 23:40:00,48.0,23.6,30.31,SSE,159,8.0,8.0,38,0.00,,,0.00,WeatherCatV1.11B39,2013-01-04 04:40:00,
2013-01-03 23:45:00,48.0,23.0,30.31,SE,139,7.0,9.0,37,0.00,,,0.00,WeatherCatV1.11B39,2013-01-04 04:45:00,
2013-01-03 23:50:00,48.0,22.3,30.30,SE,124,7.0,9.0,36,0.00,,,0.00,WeatherCatV1.11B39,2013-01-04 04:50:00,
2013-01-03 23:55:00,48.0,23.6,30.30,ESE,123,6.0,9.0,38,0.00,,,0.00,WeatherCatV1.11B39,2013-01-04 04:55:00,